|   |  | Asteroid (4768) Hartley
					
					
					
					
						
					
					
						
							(Preview) 
						
							
								Asteroid 4768 Hartley (1988 PH1) is a main-belt asteroid discovered on August 11, 1988 by Noymer, A. J. at Siding Spring. It was named in honour of Malcolm Hartley, deputy astronomer of the U.K. Schmidt telescope at Siding Spring, with which this minor planet was discovered.  [url=http://en.wikip... | Blobrana | 1 |  |  | 
		
			
			
				
				
					|   |  | Asteroid 2006 AL8
					
					
					
					
						
					
					
						
							(Preview) 
						
							
								The 580 - 1300 metre wide asteroid 2006 AL8 will make a close pass (40.9 lunar distances, 0.1050 AU), travelling at 36.73 km/second, to the Earth-Moon system on the 1st February, 2012 @ 20:37 UT ±10:17.   See more  The Lunar Di...               | Blobrana | 1 |  |  | 
		
			
			
				
				
					|   |  | Asteroid (585) Bilkis
					
					
					
					
						
					
					
						
							(Preview) 
						
							
								Young astronomers in Dartford observe 4.5 billion year-old asteroid  Astronomers at a Dartford school took part in a Europe-wide observation of an asteroid last month (January). Pupils at the Leigh Technology Academy were part of a six-school observation of asteroid '[url=http... | Blobrana | 0 |  |  | 
		
			
			
				
				
					|   |  | Asteroid (356) Liguria
					
					
					
					
						
					
					
						
							(Preview) 
						
							
								The 13.3 magnitude asteroid (356) Liguria will occult the 5.4 magnitude  star HD 210424 in the constellation Aquarius at 22:37 UT, 7th Dec 2010. The 5.4 second event is visible from W Africa and NE Brazil.  Position (2000): RA 22 10 37.4823, Dec -11 33 53.782 | Blobrana | 1 |  |  | 
		
			
			
				
				
					|   |  | Asteroid 2011 UE256
					
					
					
					
						
					
					
						
							(Preview) 
						
							
								Orbital elements:
2011 UE256                                               Earth MOID = 0.0993 AU
Epoch 2011 Aug. 27.0 TT = JDT 2455800.5                 MPC
M 325.80219              (2000.0)            P               Q
n   0.19864216     Peri.  124.35493     -0.93662276     -0.32577151
a   2.9090762      Node    37.10834     +0.20758491     -0.81239990
e   0.8304205      Incl.   12.33463     +0.28221676     -0.48361071
P   4.96           H   19.... | Blobrana | 1 |  |  | 
		
			
			
				
				
					|   |  | Asteroid 2011 XE
					
					
					
					
						
					
					
						
							(Preview) 
						
							
								Orbital elements:
2011 XE                                                  Earth MOID = 0.0538 AU
Epoch 2011 Aug. 27.0 TT = JDT 2455800.5                 MPC
M 354.47331              (2000.0)            P               Q
n   1.42032656     Peri.   46.58270     -0.06848915     +0.97000746
a   0.7838096      Node   221.26609     -0.98664169     -0.10049186
e   0.4633150      Incl.   20.70836     -0.14780870     +0.22132987
P   0.69           H   19.1           G   0... | Blobrana | 1 |  |  | 
		
			
			
				
				
					|   |  | Asteroid 2008 JD33
					
					
					
					
						
					
					
						
							(Preview) 
						
							
								  2008 JD33  Earth Impact Risk SummaryTorino Scale (maximum)Palermo Scale (maximum)-8.66Palermo Scale (cumulative)-8.27Impact Probability (cumulative)1.2e-08Number of Potential Impacts35Vimpact13.18 km/sVinfinity6.41 km/sH27.4Diameter0.014 kmMass8.1e+06 kgEnergy2.3e-01 MT...           | Blobrana | 0 |  |  | 
		
			
			
				
				
					|   |  | Asteroid 2007 HV4
					
					
					
					
						
					
					
						
							(Preview) 
						
							
								The 5 - 11 metre wide asteroid 2007 HV4 will make a close pass (4.8 lunar distances, 0.0122 AU), travelling at 8.98 km/second, to the Earth-Moon system on the 19th April, 2012 @ 03:57 UT ±1 day 17:57.   See more  The Lunar Distan...               | Blobrana | 0 |  |  | 
		
			
			
				
				
					|   |  | Asteroid 2010 VP139
					
					
					
					
						
					
					
						
							(Preview) 
						
							
								 2010 VP139  Earth Impact Risk SummaryTorino Scale (maximum) Palermo Scale (maximum) -6.98Palermo Scale (cumulative) -6.21Impact Probability (cumulative) 2.4e-05Number of Potential Impacts 431 Vimpact 11.94 km/sVinfinity 3.09 km/sH 28.6Diameter 0.007 kmMass 3.9e+05 kgEnergy 6.3e-03 M...          | Blobrana | 1 |  |  | 
		
			
			
				
				
					|   |  | Asteroid 2011 DX4
					
					
					
					
						
					
					
						
							(Preview) 
						
							
								Orbital elements: 2011 DX4                                                 Earth MOID = 0.0019 AU Epoch 2011 Feb. 8.0 TT = JDT 2455600.5                  MPC M  11.68081              (2000.0)            P               Q n   0.35302848     Peri.  107.39787     +0.32524847     -0.94556750 a   1.9827268      Node   323.61587     +0.86057416     +0.30068634 e   0.6614965      Incl.    1.03827     +0.39195095     +0.12445815 P   2.79           H   26.4           G   0.15           U   9 MPE...                 | Blobrana | 2 |  |  | 
		
			
			
				
				
					|   |  | Asteroid (12088) Macalintal
					
					
					
					
						
					
					
						
							(Preview) 
						
							
								Asteroid (12088) Macalintal is at Opposition (1.3587 AU) on the 26th January, 2012. Asteroid (12088) Macalintal  is an asteroid named after Filipino Jeric V. Macalintal a high school student cited for winning the 2002 Intel International Science and Engineering Fair in Louisville, Kentucky wi... | Blobrana | 1 |  |  | 
		
			
			
				
				
					|   |  | Asteroid 2010 ON101
					
					
					
					
						
					
					
						
							(Preview) 
						
							
								Orbital elements: 2010 ON101                                          PHA, Earth MOID = 0.0451 AU Epoch 2010 July 23.0 TT = JDT 2455400.5                 MPC M  13.55030              (2000.0)            P               Q n   0.48719511     Peri.    7.59435     -0.18200517     +0.97157772 a   1.5995609      Node   252.01241     -0.91031752     -0.22468523 e   0.3978208      Incl.    9.15708     -0.37174741     +0.07452032 P   2.02           H   20.4           G   0.15...                | Blobrana | 2 |  |  | 
		
			
			
				
				
					|   |  | Asteroid (11697) Estrella (1998 FX98)
					
					
					
					
						
					
					
						
							(Preview) 
						
							
								Asteroid (11697) Estrella (1998 FX98) is at Perihelion (2.2041 AU) on the 23rd January, 2012. Asteroid (11697) Estrella is an asteroid named after Filipino Allan N. Estrella, a high school student cited for winning the 2002 Intel International Science and Engineering Fair in Louisville, Kentuc... | Blobrana | 0 |  |  | 
		
			
			
				
				
					|   |   | Asteroid 2011 XZ1
					
					
					
					
						
					
					
						
							(Preview) 
						
							
								Orbital elements:
2011 XZ1                                            PHA, Earth MOID = 0.0464 AU
Epoch 2011 Dec. 5.0 TT = JDT 2455900.5                  MPC
M  88.29571              (2000.0)            P               Q
n   0.31493820     Peri.   30.74738     +0.54987382     +0.82380176
a   2.1395338      Node   272.94666     -0.79164789     +0.46142096
e   0.5172371      Incl.    7.93124     -0.26633139     +0.32930435
P   3.13           H   17.4... | Blobrana | 1 |  |  | 
		
			
			
				
				
					|   |  | Asteroid 2011 YH74
					
					
					
					
						
					
					
						
							(Preview) 
						
							
								Orbital elements:
2011 YH74                                                Earth MOID = 0.2726 AU
Epoch 2012 Mar. 14.0 TT = JDT 2456000.5                 MPC
M  39.74505              (2000.0)            P               Q
n   0.26171632     Peri.    7.52864     +0.58298384     -0.80672082
a   2.4205581      Node    46.86998     +0.73837101     +0.47643694
e   0.4792163      Incl.    7.60615     +0.33902520     +0.34958455
P   3.77           H   19.0           G   0.1... | Blobrana | 1 |  |  |